Regional Weather Roundup
Issued by NWS Little Rock, AR

Home | Current Version | Previous Version | Text Only | Print | Product List | Glossary Off
Versions: 1 2 3 4 5 6 7 8 9 10 11 12 13 14 15 16 17 18 19 20 21 22 23 24 25 26 27 28 29 30 31 32 33 34 35 36 37 38 39 40 41 42 43 44 45 46 47 48 49 50

000
ASUS44 KLZK 271905
RWRLZK

WEATHER ROUNDUP FOR ARKANSAS
NATIONAL WEATHER SERVICE LITTLE ROCK AR
100 PM CST TUE JAN 27 2015

NOTE: "FAIR" INDICATES FEW OR NO CLOUDS BELOW 12,000 FEET WITH NO
SIGNIFICANT WEATHER AND/OR OBSTRUCTIONS TO VISIBILITY.

ARZ001-003-010-029-272000-
NORTHWEST ARKANSAS

CITY           SKY/WX    TMP DP  RH WIND       PRES   REMARKS
FAYETTEVILLE   SUNNY     62  29  28 NW6       30.14F
FORT SMITH     SUNNY     67  29  24 CALM      30.14F
HARRISON       SUNNY     58  30  34 CALM      30.13F
BENTONVILLE    SUNNY     61  28  29 CALM      30.15F
ROGERS         SUNNY     60  28  29 VRB3      30.14F
SILOAM SPGS    SUNNY    N/A N/A N/A E5        30.14F
HIGHFILL       SUNNY     62  29  28 CALM      30.13F
SPRINGDALE     SUNNY     59  30  33 W3        30.16F
$$

ARZ004-005-016-272000-
NORTH CENTRAL ARKANSAS

CITY           SKY/WX    TMP DP  RH WIND       PRES   REMARKS
BATESVILLE     SUNNY     59  34  38 N5        30.14F
FLIPPIN        SUNNY     57  30  35 NW3       30.13F
MTN HOME       SUNNY     54  33  45 VRB3      30.13F
$$

ARZ040-041-272000-
WEST CENTRAL ARKANSAS

CITY           SKY/WX    TMP DP  RH WIND       PRES   REMARKS
MENA           SUNNY     72  19  14 NE3       30.13F
MOUNT IDA      SUNNY     69  33  26 VRB3      30.11F
$$

ARZ009-017-025-026-028-272000-
NORTHEAST ARKANSAS

CITY           SKY/WX    TMP DP  RH WIND       PRES   REMARKS
CORNING        FAIR      50  36  57 CALM      30.15F
JONESBORO      MOSUNNY   52  38  58 NE9       30.13F
NEWPORT        SUNNY     54  36  50 N8        30.16F
WALNUT RIDGE   SUNNY     52  36  54 NE6       30.14F
BLYTHEVILLE    MOSUNNY   52  38  58 N15       30.14F
$$

ARZ022-023-033-042-044-272000-
CENTRAL ARKANSAS

CITY           SKY/WX    TMP DP  RH WIND       PRES   REMARKS
LITTLE ROCK    SUNNY     65  29  25 NE10      30.13F
N LITTLE ROCK  SUNNY     62  37  39 NE2       30.13F
JACKSONVILLE   SUNNY     62  33  33 VRB3      30.12F
SEARCY         SUNNY     60  34  37 N6        30.15F
HOT SPRINGS    SUNNY     68  34  28 S6        30.12F
RUSSELLVILLE   SUNNY     64  32  30 VRB3      30.13F
CLINTON        FAIR      64  32  29 NW5       30.13F
$$

ARZ036-272000-
EAST ARKANSAS

CITY           SKY/WX    TMP DP  RH WIND       PRES   REMARKS
WEST MEMPHIS   MOSUNNY   53  39  59 N9        30.12F
$$

ARZ050-053-066-070-073-272000-
SOUTHWEST ARKANSAS

CITY           SKY/WX    TMP DP  RH WIND       PRES   REMARKS
ARKADELPHIA    FAIR      68  38  33 NE6       30.13F
CAMDEN         SUNNY     70  32  24 CALM      30.14F
TEXARKANA      SUNNY     71  31  22 CALM      30.13F
EL DORADO      SUNNY     67  35  30 CALM      30.14F
DE QUEEN       SUNNY     71  30  21 SW3       30.11F
$$

ARZ056-057-069-272000-
SOUTHEAST ARKANSAS

CITY           SKY/WX    TMP DP  RH WIND       PRES   REMARKS
PINE BLUFF     SUNNY     60  36  40 NE8       30.14F
STUTTGART      SUNNY     57  36  44 N8        30.15F
MONTICELLO     SUNNY     63  34  33 VRB7      30.12F

$$





USA.gov is the U.S. government's official web portal to all federal, state and local government web resources and services.